FALCON 9 DEB (47608 NORAD) Tracking and Keplerian Element Data

This shows tracking and keplerian element data for the satellite.

Feedback or suggestion? Click here.




ElementValue
Catalog47608
NameFALCON 9 DEB
Epoch Orbit397
Epoch Day59.94218522
Epoch Year2021
RAAN357.8303
Inclination53.0461
Eccentricity0.0014767
Argument of Perigee308.7775
Mean Anonmoly51.1943
Mean Motion16.20290257
Decay Rate0.00841539
L11 47608U 21009BN 21059.94218522 .00841539 11824-4 40605-3 0 9995
L22 47608 53.0461 357.8303 0014767 308.7775 51.1943 16.20290257 3973

Live tracking and technical data element details for FALCON 9 DEB (NORAD 47608). FALCON 9 DEB can be tracked NOW for your location showing map with azimuth and elevation plus other details from your city location.

Track the satellite on the map from your city or location and see movement details for azimuth, elevation, latitude, longitude, range, height, and movement on the map or in text.







IsCatalogInMostPopularTable: catalog: 47608, numindb: 5
Update: records affected: 1



GetName: 47608 FALCON 9 DEB

Hit Count: updated at: Mon, 01 Mar 2021 16:55:23 GMT